• In Hungary
  • List of Countries
  • For 7 days
  • Water Temperature
  • Satellite Maps
  • Weather Map
  • News
  • Weather Widgets
  • user-avatar
    Login

    Hourly Weather Kofanovo

    Today, 23 October, Tuesday

    Time Temperature Precipitation Wind Pressure Humidity
    00:00 +3°C° 0 mm 2 mps 742 mmHg 79%
    01:00 +3°C° 0 mm 2 mps 741 mmHg 81%
    02:00 +2°C° 0 mm 2 mps 740 mmHg 81%
    03:00 +1°C° 0 mm 3 mps 740 mmHg 82%
    04:00 +1°C° 0 mm 3 mps 739 mmHg 82%
    05:00 +1°C° 0 mm 3 mps 739 mmHg 82%
    06:00 +2°C° 0 mm 3 mps 739 mmHg 80%
    07:00 +1°C° 0 mm 4 mps 738 mmHg 78%
    08:00 +2°C° 0 mm 5 mps 738 mmHg 75%
    09:00 +3°C° 0 mm 5 mps 737 mmHg 72%
    10:00 +5°C° 0 mm 5 mps 737 mmHg 69%
    11:00 +7°C° 0 mm 6 mps 736 mmHg 65%
    12:00 +7°C° 0 mm 6 mps 736 mmHg 66%
    13:00 +7°C° 0 mm 6 mps 735 mmHg 67%
    14:00 +7°C° 0 mm 6 mps 735 mmHg 68%
    15:00 +6°C° 0.1 mm 5 mps 734 mmHg 72%
    16:00 +6°C° 0.1 mm 5 mps 733 mmHg 75%
    17:00 +5°C° 0.1 mm 5 mps 733 mmHg 78%
    18:00 +5°C° 0 mm 5 mps 732 mmHg 79%
    19:00 +5°C° 0 mm 5 mps 732 mmHg 80%
    20:00 +5°C° 0 mm 5 mps 731 mmHg 81%
    21:00 +5°C° 0.1 mm 5 mps 730 mmHg 81%
    22:00 +5°C° 0.1 mm 5 mps 729 mmHg 81%
    23:00 +5°C° 0.1 mm 5 mps 729 mmHg 81%

    Tomorrow, 24 October, Wednesday

    Time Temperature Precipitation Wind Pressure Humidity
    00:00 +5°C° 0.4 mm 5 mps 728 mmHg 81%
    01:00 +5°C° 0.4 mm 5 mps 727 mmHg 80%
    02:00 +3°C° 0.4 mm 6 mps 726 mmHg 79%
    03:00 +3°C° 0.2 mm 6 mps 725 mmHg 80%
    04:00 +3°C° 0.2 mm 6 mps 724 mmHg 80%
    05:00 +3°C° 0.2 mm 6 mps 723 mmHg 81%
    06:00 +3°C° 0.5 mm 7 mps 722 mmHg 82%
    07:00 +4°C° 0.5 mm 7 mps 721 mmHg 83%
    08:00 +4°C° 0.5 mm 7 mps 720 mmHg 84%
    09:00 +5°C° 0.3 mm 7 mps 720 mmHg 83%
    10:00 +5°C° 0.3 mm 7 mps 719 mmHg 82%
    11:00 +6°C° 0.3 mm 7 mps 719 mmHg 81%
    12:00 +6°C° 0.3 mm 7 mps 718 mmHg 80%
    13:00 +6°C° 0.3 mm 7 mps 718 mmHg 79%
    14:00 +7°C° 0.3 mm 6 mps 718 mmHg 79%
    15:00 +5°C° 0.3 mm 6 mps 718 mmHg 80%
    16:00 +6°C° 0.3 mm 5 mps 718 mmHg 82%
    17:00 +5°C° 0.3 mm 5 mps 718 mmHg 83%
    18:00 +5°C° 0 mm 4 mps 719 mmHg 85%
    19:00 +5°C° 0 mm 4 mps 719 mmHg 86%
    20:00 +4°C° 0 mm 4 mps 719 mmHg 87%
    21:00 +4°C° 0 mm 4 mps 719 mmHg 89%
    22:00 +3°C° 0 mm 3 mps 719 mmHg 90%
    23:00 +3°C° 0 mm 3 mps 720 mmHg 91%

    Day after tomorrow, 25 October, Thursday

    Time Temperature Precipitation Wind Pressure Humidity
    00:00 +2°C° 0 mm 3 mps 720 mmHg 91%
    01:00 +2°C° 0 mm 3 mps 720 mmHg 92%
    02:00 +2°C° 0 mm 3 mps 720 mmHg 92%
    03:00 +1°C° 0 mm 3 mps 720 mmHg 92%
    04:00 0°C° 0 mm 4 mps 720 mmHg 92%
    05:00 0°C° 0 mm 4 mps 720 mmHg 92%
    06:00 0°C° 0 mm 5 mps 720 mmHg 90%
    07:00 +1°C° 0 mm 5 mps 720 mmHg 88%
    08:00 +1°C° 0 mm 6 mps 721 mmHg 85%
    09:00 +2°C° 0.4 mm 6 mps 721 mmHg 84%
    10:00 +2°C° 0.4 mm 7 mps 721 mmHg 82%
    11:00 +3°C° 0.4 mm 7 mps 721 mmHg 81%
    12:00 +3°C° 0.5 mm 7 mps 721 mmHg 80%
    13:00 +3°C° 0.5 mm 6 mps 722 mmHg 80%
    14:00 +3°C° 0.5 mm 6 mps 722 mmHg 79%
    15:00 +3°C° 0.1 mm 6 mps 723 mmHg 80%
    16:00 +2°C° 0.1 mm 5 mps 723 mmHg 81%
    17:00 +2°C° 0.1 mm 5 mps 724 mmHg 81%
    18:00 +2°C° 0.1 mm 5 mps 724 mmHg 82%
    19:00 +1°C° 0.1 mm 5 mps 725 mmHg 83%
    20:00 +1°C° 0.1 mm 5 mps 725 mmHg 83%
    21:00 +1°C° 0.1 mm 4 mps 725 mmHg 84%
    22:00 0°C° 0.1 mm 4 mps 726 mmHg 84%
    23:00 0°C° 0.1 mm 4 mps 726 mmHg 85%

    26 October, Friday

    Time Temperature Precipitation Wind Pressure Humidity
    00:00 +1°C° 0 mm 3 mps 727 mmHg 85%
    01:00 0°C° 0 mm 3 mps 727 mmHg 86%
    02:00 0°C° 0 mm 3 mps 727 mmHg 87%
    03:00 0°C° 0 mm 3 mps 728 mmHg 86%
    04:00 +1°C° 0 mm 3 mps 728 mmHg 85%
    05:00 +1°C° 0 mm 3 mps 728 mmHg 84%
    06:00 +1°C° 0 mm 3 mps 729 mmHg 84%
    07:00 0°C° 0 mm 4 mps 729 mmHg 84%
    08:00 0°C° 0 mm 4 mps 730 mmHg 84%
    09:00 +1°C° 0 mm 4 mps 730 mmHg 79%
    10:00 +3°C° 0 mm 4 mps 730 mmHg 75%
    11:00 +3°C° 0 mm 5 mps 731 mmHg 70%
    12:00 +3°C° 0 mm 5 mps 731 mmHg 69%
    13:00 +3°C° 0 mm 5 mps 731 mmHg 68%
    14:00 +5°C° 0 mm 5 mps 731 mmHg 66%
    15:00 +3°C° 0.1 mm 5 mps 732 mmHg 71%
    16:00 +3°C° 0.1 mm 4 mps 732 mmHg 75%
    17:00 +3°C° 0.1 mm 4 mps 732 mmHg 79%
    18:00 +3°C° 0.2 mm 4 mps 733 mmHg 82%
    19:00 +1°C° 0.2 mm 4 mps 733 mmHg 84%
    20:00 +1°C° 0.2 mm 4 mps 733 mmHg 86%
    21:00 +1°C° 0.1 mm 4 mps 734 mmHg 88%
    22:00 0°C° 0.1 mm 4 mps 734 mmHg 90%
    23:00 0°C° 0.1 mm 4 mps 735 mmHg 92%

    27 October, Saturday

    Time Temperature Precipitation Wind Pressure Humidity
    00:00 -1°C° 0 mm 4 mps 735 mmHg 92%
    01:00 -1°C° 0 mm 4 mps 736 mmHg 92%
    02:00 -1°C° 0 mm 4 mps 736 mmHg 93%
    03:00 -1°C° 0 mm 4 mps 737 mmHg 93%
    04:00 -2°C° 0 mm 4 mps 737 mmHg 92%
    05:00 -2°C° 0 mm 4 mps 738 mmHg 92%
    06:00 -1°C° 0 mm 4 mps 738 mmHg 91%
    07:00 -1°C° 0 mm 4 mps 738 mmHg 89%
    08:00 0°C° 0 mm 5 mps 738 mmHg 87%
    09:00 +1°C° 0 mm 5 mps 738 mmHg 82%
    10:00 +2°C° 0 mm 6 mps 738 mmHg 77%
    11:00 +4°C° 0 mm 7 mps 738 mmHg 72%
    12:00 +4°C° 0 mm 7 mps 737 mmHg 72%
    13:00 +5°C° 0 mm 7 mps 736 mmHg 73%
    14:00 +5°C° 0 mm 8 mps 736 mmHg 74%
    15:00 +5°C° 0.1 mm 8 mps 735 mmHg 75%
    16:00 +5°C° 0.1 mm 8 mps 735 mmHg 76%
    17:00 +6°C° 0.1 mm 8 mps 734 mmHg 78%
    18:00 +6°C° 0 mm 8 mps 734 mmHg 77%
    19:00 +6°C° 0 mm 8 mps 733 mmHg 76%
    20:00 +7°C° 0 mm 8 mps 733 mmHg 75%
    21:00 +8°C° 0 mm 7 mps 733 mmHg 77%
    22:00 +8°C° 0 mm 7 mps 733 mmHg 79%
    23:00 +7°C° 0 mm 6 mps 733 mmHg 81%

    28 October, Sunday

    Time Temperature Precipitation Wind Pressure Humidity
    00:00 +7°C° 0 mm 6 mps 734 mmHg 84%
    01:00 +6°C° 0 mm 5 mps 734 mmHg 87%
    02:00 +6°C° 0 mm 5 mps 735 mmHg 90%
    03:00 +6°C° 0 mm 5 mps 735 mmHg 89%
    04:00 +5°C° 0 mm 5 mps 735 mmHg 88%
    05:00 +5°C° 0 mm 5 mps 736 mmHg 87%
    06:00 +5°C° 0 mm 5 mps 736 mmHg 86%
    07:00 +5°C° 0 mm 5 mps 737 mmHg 84%
    08:00 +5°C° 0 mm 5 mps 738 mmHg 83%
    09:00 +5°C° 0 mm 4 mps 739 mmHg 79%
    10:00 +5°C° 0 mm 4 mps 739 mmHg 76%
    11:00 +6°C° 0 mm 4 mps 740 mmHg 73%
    12:00 +7°C° 0 mm 3 mps 740 mmHg 72%
    13:00 +7°C° 0 mm 3 mps 741 mmHg 71%
    14:00 +7°C° 0 mm 2 mps 741 mmHg 69%
    15:00 +6°C° 0.1 mm 2 mps 741 mmHg 71%
    16:00 +7°C° 0.1 mm 1 mps 742 mmHg 73%
    17:00 +6°C° 0.1 mm 1 mps 742 mmHg 75%
    18:00 +6°C° 0.2 mm 1 mps 742 mmHg 76%
    19:00 +5°C° 0.2 mm 2 mps 743 mmHg 77%
    20:00 +5°C° 0.2 mm 2 mps 743 mmHg 78%
    21:00 +5°C° 0.2 mm 2 mps 743 mmHg 78%
    22:00 +4°C° 0.2 mm 3 mps 743 mmHg 79%
    23:00 +4°C° 0.2 mm 3 mps 743 mmHg 80%

    29 October, Monday

    Time Temperature Precipitation Wind Pressure Humidity
    00:00 +4°C° 0.1 mm 3 mps 743 mmHg 81%
    01:00 +4°C° 0.1 mm 4 mps 743 mmHg 82%
    02:00 +4°C° 0.1 mm 4 mps 743 mmHg 83%
    03:00 +3°C° 0.1 mm 5 mps 743 mmHg 84%
    04:00 +3°C° 0.1 mm 5 mps 743 mmHg 84%
    05:00 +3°C° 0.1 mm 5 mps 743 mmHg 85%
    06:00 +3°C° 0.1 mm 5 mps 743 mmHg 86%
    07:00 +3°C° 0.1 mm 5 mps 743 mmHg 88%
    08:00 +5°C° 0.1 mm 5 mps 743 mmHg 89%
    09:00 +5°C° 0 mm 5 mps 742 mmHg 90%
    10:00 +6°C° 0 mm 4 mps 742 mmHg 90%
    11:00 +7°C° 0 mm 4 mps 742 mmHg 91%
    12:00 +8°C° 0 mm 4 mps 742 mmHg 91%
    13:00 +8°C° 0 mm 4 mps 742 mmHg 92%
    14:00 +10°C° 0 mm 4 mps 741 mmHg 92%
    15:00 +10°C° 0 mm 4 mps 741 mmHg 93%
    16:00 +10°C° 0 mm 4 mps 741 mmHg 94%
    17:00 +10°C° 0 mm 4 mps 741 mmHg 95%
    18:00 +10°C° 0 mm 4 mps 741 mmHg 93%
    19:00 +10°C° 0 mm 4 mps 741 mmHg 90%
    20:00 +10°C° 0 mm 4 mps 741 mmHg 88%
    21:00 +10°C° 0 mm 4 mps 741 mmHg 85%
    22:00 +8°C° 0 mm 4 mps 741 mmHg 83%
    23:00 +8°C° 0 mm 4 mps 741 mmHg 80%
    Show more